Location: Poughquag
(41.6090°N, 73.6820°W)
Time: 09:34:38
(UTC-05:00)

DIWATA 2B (PO-101) - Pass Details

Date: 17 November 2025
Orbit: 563 x 574 km, 98.1° (Epoch: 07 December)

Event Time Altitude Azimuth Distance (km) Brightness Sun altitude
Exits shadow 18:34:14 11° 359° (N) 1,789 ? -22.6°
Maximum altitude 18:37:53 44° 288° (WNW) 786 ? -23.3°
Drops below altitude 10° 18:41:42 10° 216° (SW) 1,853 ? -24.0°
Sets 18:43:53 0° 210° (SSW) 2,745 ? -24.4°
